Regional Weather Roundup
Issued by NWS

Home | Current Version | Previous Version | Text Only | Print | Product List | Glossary Off
Versions: 1 2 3 4 5 6 7 8 9 10 11 12 13 14 15 16 17 18 19 20 21 22 23 24 25 26 27 28 29 30 31 32 33 34 35 36 37 38 39 40 41 42 43 44 45 46 47 48 49 50

000
ASUS43 KOAX 310010
RWRNE

WEATHER ROUNDUP FOR NEBRASKA
NATIONAL WEATHER SERVICE OMAHA NE
700 PM CDT WED JUL 30 2014

NOTES: SATELLITE DATA IS BEING USED TO AUGMENT CLOUD COVER ABOVE
       12000 FEET.
       "FAIR" INDICATES FEW OR NO CLOUDS BELOW 12,000 FEET WITH NO
       SIGNIFICANT WEATHER AND/OR OBSTRUCTIONS TO VISIBILITY.

  * THESE STATIONS DO NOT REPORT WEATHER SUCH AS RAIN...SNOW OR FOG.

NEZ001>004-019>022-054>056-310100-
NEBRASKA PANHANDLE

CITY           SKY/WX    TMP DP  RH WIND       PRES   REMARKS
SCOTTSBLUFF    PTSUNNY   75  55  49 SW9       30.22F
6HR MIN TEMP:  74; 6HR MAX TEMP:  79;

ALLIANCE       CLOUDY    78  51  38 S7        30.20F
6HR MIN TEMP:  76; 6HR MAX TEMP:  81;

CHADRON        PTSUNNY   84  45  25 W5        30.15F
6HR MIN TEMP:  77; 6HR MAX TEMP:  85;

KIMBALL        CLOUDY    65  57  75 W10       30.29F
SIDNEY         CLOUDY    69  55  60 SW14      30.28F
6HR MIN TEMP:  68; 6HR MAX TEMP:  75;

$$

NEZ057>060-069>072-079>082-310100-
SOUTHWEST NEBRASKA

CITY           SKY/WX    TMP DP  RH WIND       PRES   REMARKS
NORTH PLATTE   PTSUNNY   77  55  46 S5        30.16S
6HR MIN TEMP:  77; 6HR MAX TEMP:  82;

IMPERIAL       PTSUNNY   76  54  46 W5        30.20F
6HR MIN TEMP:  72; 6HR MAX TEMP:  79;

LEXINGTON      PTSUNNY   78  55  44 CALM      30.15F
MCCOOK         PTSUNNY   78  54  43 W6        30.17F
6HR MIN TEMP:  73; 6HR MAX TEMP:  81;

OGALLALA       CLOUDY    73  59  61 CALM      30.20F
$$

NEZ005>010-023>029-035>040-094-310100-
NORTH CENTRAL NEBRASKA

CITY           SKY/WX    TMP DP  RH WIND       PRES   REMARKS
VALENTINE      MOSUNNY   83  48  29 SW6       30.11F
6HR MIN TEMP:  81; 6HR MAX TEMP:  86;

AINSWORTH      PTSUNNY   79  51  37 CALM      30.13F
BROKEN BOW     PTSUNNY   78  56  46 SE3       30.15S
6HR MIN TEMP:  76; 6HR MAX TEMP:  83;

O`NEILL        MOSUNNY   80  55  42 E3        30.12F
ORD            PTSUNNY   80  53  39 CALM      30.12S
6HR MIN TEMP:  77; 6HR MAX TEMP:  82; 6HR PCP: TRACE;

THEDFORD       CLOUDY    80  51  36 E3        30.16F
$$

NEZ041-046>049-061>064-073>077-083>087-310100-
SOUTH CENTRAL NEBRASKA

CITY           SKY/WX    TMP DP  RH WIND       PRES   REMARKS
GRAND ISLAND   PTSUNNY   78  56  46 SE5       30.14S
6HR MIN TEMP:  75; 6HR MAX TEMP:  81;

AURORA         PTSUNNY   76  58  52 E3        30.13S
HASTINGS       MOSUNNY   77  52  41 E5        30.14S
6HR MIN TEMP:  75; 6HR MAX TEMP:  80;

HEBRON         MOSUNNY   79  48  33 N5        30.11F
HOLDREGE       PTSUNNY   77  54  43 CALM      30.15S
KEARNEY *      MOSUNNY   79  55  44 NE5       30.14F
YORK           MOSUNNY   75  55  50 E3        30.13S
$$

NEZ011>018-030>034-042>045-310100-
NORTHEAST NEBRASKA

CITY           SKY/WX    TMP DP  RH WIND       PRES   REMARKS
NORFOLK        MOSUNNY   79  52  38 CALM      30.11S
6HR MIN TEMP:  77; 6HR MAX TEMP:  82;

ALBION         MOSUNNY   76  57  51 E3        30.12F
BLAIR          SUNNY     77  52  41 CALM      30.10S
COLUMBUS *     MOSUNNY   79  55  44 N3        30.12S
FREMONT        SUNNY     79  49  34 CALM      30.11S
TEKAMAH        PTSUNNY   79  54  41 E6        30.09F
6HR MIN TEMP:  79; 6HR MAX TEMP:  83;

WAYNE          SUNNY     78  56  46 NW3       30.11F
$$

NEZ050>053-065>068-078-088>093-310100-
SOUTHEAST NEBRASKA

CITY           SKY/WX    TMP DP  RH WIND       PRES   REMARKS
LINCOLN        MOSUNNY   80  52  37 N9        30.11S
6HR MIN TEMP:  78; 6HR MAX TEMP:  84;

OMAHA EPPLEY   PTSUNNY   80  52  37 NE9       30.09F
6HR MIN TEMP:  79; 6HR MAX TEMP:  84;

BEATRICE       SUNNY     77  54  44 N3        30.10S
FALLS CITY     SUNNY     80  55  42 N5        30.08S
6HR MIN TEMP:  77; 6HR MAX TEMP:  83;

NEBRASKA CITY  SUNNY     77  53  42 CALM      30.09F
PLATTSMOUTH    MOSUNNY   78  52  39 CALM      30.10S
$$

NEZ044-045-051>053-067-310100-
OMAHA AREA

CITY           SKY/WX    TMP DP  RH WIND       PRES   REMARKS
OMAHA EPPLEY   PTSUNNY   80  52  37 NE9       30.09F
6HR MIN TEMP:  79; 6HR MAX TEMP:  84;

BLAIR          SUNNY     77  52  41 CALM      30.10S
FREMONT        SUNNY     79  49  34 CALM      30.11S
MILLARD        PTSUNNY   79  53  40 N5        30.09S
OFFUTT AFB     SUNNY     78  56  45 N1        30.08F
PLATTSMOUTH    MOSUNNY   78  52  39 CALM      30.10S
WAHOO          FAIR      78  53  42 CALM      30.10F
$$


USA.gov is the U.S. government's official web portal to all federal, state and local government web resources and services.